• In Uzbekistan
  • List of Countries
  • For 7 days
  • Water Temperature
  • Satellite Maps
  • Weather Map
  • Weather Widgets
  • user-avatar
    Login

    Hourly Weather Balatonfured

    Today, 20 September, Wednesday

    Time Temperature Precipitation Wind Pressure Humidity
    00:00 +12°C° 0.3 mm 3 mps 747 mmHg 93%
    01:00 +12°C° 0 mm 4 mps 747 mmHg 93%
    02:00 +11°C° 0.1 mm 4 mps 747 mmHg 93%
    03:00 +11°C° 0.1 mm 4 mps 747 mmHg 93%
    04:00 +11°C° 0.1 mm 4 mps 747 mmHg 93%
    05:00 +11°C° 0 mm 4 mps 747 mmHg 92%
    06:00 +10°C° 0 mm 5 mps 747 mmHg 91%
    07:00 +10°C° 0 mm 5 mps 748 mmHg 90%
    08:00 +12°C° 0 mm 5 mps 748 mmHg 88%
    09:00 +11°C° 0 mm 6 mps 748 mmHg 87%
    10:00 +11°C° 0 mm 6 mps 749 mmHg 85%
    11:00 +13°C° 0 mm 6 mps 749 mmHg 82%
    12:00 +12°C° 0 mm 7 mps 749 mmHg 80%
    13:00 +12°C° 0 mm 7 mps 749 mmHg 77%
    14:00 +13°C° 0 mm 8 mps 749 mmHg 76%
    15:00 +13°C° 0 mm 8 mps 749 mmHg 74%
    16:00 +13°C° 0 mm 8 mps 749 mmHg 73%
    17:00 +12°C° 0 mm 7 mps 749 mmHg 74%
    18:00 +12°C° 0 mm 7 mps 749 mmHg 75%
    19:00 +11°C° 0 mm 7 mps 749 mmHg 77%
    20:00 +11°C° 0 mm 7 mps 749 mmHg 77%
    21:00 +10°C° 0 mm 7 mps 750 mmHg 78%
    22:00 +10°C° 0 mm 7 mps 750 mmHg 79%
    23:00 +10°C° 0 mm 7 mps 750 mmHg 78%

    Tomorrow, 21 September, Thursday

    Time Temperature Precipitation Wind Pressure Humidity
    00:00 +10°C° 0 mm 7 mps 750 mmHg 78%
    01:00 +10°C° 0 mm 7 mps 750 mmHg 78%
    02:00 +10°C° 0 mm 7 mps 750 mmHg 77%
    03:00 +10°C° 0 mm 7 mps 750 mmHg 76%
    04:00 +10°C° 0 mm 8 mps 750 mmHg 76%
    05:00 +10°C° 0 mm 8 mps 750 mmHg 75%
    06:00 +11°C° 0 mm 8 mps 750 mmHg 75%
    07:00 +11°C° 0 mm 8 mps 750 mmHg 74%
    08:00 +12°C° 0 mm 9 mps 751 mmHg 69%
    09:00 +13°C° 0 mm 9 mps 751 mmHg 65%
    10:00 +16°C° 0 mm 9 mps 751 mmHg 60%
    11:00 +16°C° 0 mm 9 mps 751 mmHg 58%
    12:00 +17°C° 0 mm 9 mps 751 mmHg 55%
    13:00 +17°C° 0 mm 9 mps 751 mmHg 53%
    14:00 +17°C° 0 mm 8 mps 751 mmHg 54%
    15:00 +17°C° 0 mm 7 mps 751 mmHg 55%
    16:00 +17°C° 0 mm 6 mps 751 mmHg 55%
    17:00 +16°C° 0 mm 5 mps 751 mmHg 60%
    18:00 +15°C° 0 mm 5 mps 751 mmHg 65%
    19:00 +13°C° 0 mm 4 mps 751 mmHg 70%
    20:00 +13°C° 0 mm 4 mps 752 mmHg 73%
    21:00 +12°C° 0 mm 4 mps 752 mmHg 75%
    22:00 +12°C° 0 mm 4 mps 752 mmHg 77%
    23:00 +12°C° 0 mm 4 mps 752 mmHg 79%

    Day after tomorrow, 22 September, Friday

    Time Temperature Precipitation Wind Pressure Humidity
    00:00 +11°C° 0 mm 4 mps 752 mmHg 80%
    01:00 +11°C° 0 mm 4 mps 752 mmHg 81%
    02:00 +11°C° 0 mm 4 mps 753 mmHg 82%
    03:00 +11°C° 0 mm 3 mps 753 mmHg 83%
    04:00 +10°C° 0 mm 3 mps 753 mmHg 84%
    05:00 +11°C° 0 mm 3 mps 753 mmHg 81%
    06:00 +11°C° 0 mm 4 mps 753 mmHg 79%
    07:00 +12°C° 0 mm 4 mps 753 mmHg 77%
    08:00 +14°C° 0 mm 4 mps 754 mmHg 70%
    09:00 +15°C° 0 mm 4 mps 754 mmHg 63%
    10:00 +18°C° 0 mm 4 mps 754 mmHg 56%
    11:00 +19°C° 0 mm 4 mps 754 mmHg 53%
    12:00 +20°C° 0 mm 4 mps 754 mmHg 50%
    13:00 +21°C° 0 mm 4 mps 754 mmHg 47%
    14:00 +21°C° 0 mm 3 mps 754 mmHg 48%
    15:00 +20°C° 0 mm 3 mps 754 mmHg 49%
    16:00 +20°C° 0 mm 3 mps 754 mmHg 49%
    17:00 +19°C° 0 mm 2 mps 754 mmHg 55%
    18:00 +17°C° 0 mm 2 mps 754 mmHg 61%
    19:00 +15°C° 0 mm 1 mps 755 mmHg 67%
    20:00 +15°C° 0 mm 1 mps 755 mmHg 68%
    21:00 +14°C° 0 mm 1 mps 755 mmHg 69%
    22:00 +14°C° 0 mm 1 mps 755 mmHg 71%
    23:00 +14°C° 0 mm 1 mps 755 mmHg 72%

    23 September, Saturday

    Time Temperature Precipitation Wind Pressure Humidity
    00:00 +14°C° 0 mm 1 mps 755 mmHg 73%
    01:00 +13°C° 0 mm 1 mps 756 mmHg 74%
    02:00 +13°C° 0 mm 1 mps 756 mmHg 75%
    03:00 +13°C° 0 mm 1 mps 756 mmHg 77%
    04:00 +12°C° 0 mm 1 mps 756 mmHg 79%
    05:00 +13°C° 0 mm 1 mps 756 mmHg 77%
    06:00 +14°C° 0 mm 1 mps 756 mmHg 76%
    07:00 +14°C° 0 mm 1 mps 756 mmHg 74%
    08:00 +16°C° 0 mm 2 mps 756 mmHg 67%
    09:00 +18°C° 0 mm 2 mps 756 mmHg 60%
    10:00 +20°C° 0 mm 3 mps 756 mmHg 53%
    11:00 +21°C° 0 mm 3 mps 756 mmHg 51%
    12:00 +22°C° 0 mm 3 mps 755 mmHg 48%
    13:00 +23°C° 0 mm 4 mps 755 mmHg 46%
    14:00 +22°C° 0 mm 3 mps 755 mmHg 47%
    15:00 +22°C° 0 mm 3 mps 755 mmHg 48%
    16:00 +22°C° 0 mm 3 mps 755 mmHg 50%
    17:00 +20°C° 0 mm 3 mps 755 mmHg 56%
    18:00 +18°C° 0 mm 2 mps 755 mmHg 62%
    19:00 +17°C° 0 mm 2 mps 755 mmHg 69%
    20:00 +16°C° 0 mm 2 mps 755 mmHg 71%
    21:00 +16°C° 0 mm 1 mps 755 mmHg 73%
    22:00 +15°C° 0 mm 1 mps 755 mmHg 75%
    23:00 +15°C° 0 mm 1 mps 755 mmHg 76%

    24 September, Sunday

    Time Temperature Precipitation Wind Pressure Humidity
    00:00 +14°C° 0 mm 2 mps 755 mmHg 77%
    01:00 +14°C° 0 mm 2 mps 755 mmHg 79%
    02:00 +13°C° 0 mm 2 mps 755 mmHg 80%
    03:00 +13°C° 0 mm 2 mps 755 mmHg 81%
    04:00 +13°C° 0 mm 2 mps 755 mmHg 82%
    05:00 +13°C° 0 mm 2 mps 755 mmHg 80%
    06:00 +12°C° 0 mm 3 mps 755 mmHg 77%
    07:00 +13°C° 0 mm 3 mps 755 mmHg 75%
    08:00 +15°C° 0 mm 4 mps 755 mmHg 66%
    09:00 +17°C° 0 mm 4 mps 755 mmHg 58%
    10:00 +19°C° 0 mm 5 mps 755 mmHg 50%
    11:00 +20°C° 0 mm 5 mps 755 mmHg 48%
    12:00 +21°C° 0 mm 5 mps 755 mmHg 46%
    13:00 +22°C° 0 mm 5 mps 755 mmHg 43%
    14:00 +22°C° 0 mm 5 mps 754 mmHg 45%
    15:00 +21°C° 0 mm 5 mps 754 mmHg 46%
    16:00 +21°C° 0 mm 5 mps 754 mmHg 48%
    17:00 +19°C° 0 mm 5 mps 755 mmHg 54%
    18:00 +17°C° 0 mm 4 mps 755 mmHg 60%
    19:00 +16°C° 0 mm 3 mps 755 mmHg 66%
    20:00 +14°C° 0 mm 3 mps 755 mmHg 70%
    21:00 +13°C° 0 mm 3 mps 756 mmHg 75%
    22:00 +13°C° 0 mm 3 mps 756 mmHg 79%
    23:00 +13°C° 0 mm 3 mps 756 mmHg 82%

    25 September, Monday

    Time Temperature Precipitation Wind Pressure Humidity
    00:00 +12°C° 0 mm 3 mps 756 mmHg 84%
    01:00 +12°C° 0 mm 3 mps 756 mmHg 86%
    02:00 +12°C° 0 mm 3 mps 756 mmHg 88%
    03:00 +12°C° 0 mm 3 mps 756 mmHg 89%
    04:00 +11°C° 0 mm 3 mps 756 mmHg 91%
    05:00 +12°C° 0 mm 3 mps 756 mmHg 89%
    06:00 +12°C° 0 mm 3 mps 756 mmHg 87%
    07:00 +12°C° 0 mm 3 mps 756 mmHg 85%
    08:00 +14°C° 0 mm 3 mps 756 mmHg 77%
    09:00 +17°C° 0 mm 4 mps 756 mmHg 70%
    10:00 +19°C° 0 mm 4 mps 756 mmHg 63%
    11:00 +20°C° 0.1 mm 3 mps 756 mmHg 60%
    12:00 +21°C° 0.1 mm 3 mps 755 mmHg 57%
    13:00 +21°C° 0.1 mm 3 mps 755 mmHg 54%
    14:00 +21°C° 0.2 mm 3 mps 755 mmHg 55%
    15:00 +21°C° 0.2 mm 3 mps 755 mmHg 57%
    16:00 +21°C° 0.2 mm 3 mps 754 mmHg 58%
    17:00 +19°C° 0.3 mm 2 mps 755 mmHg 65%
    18:00 +18°C° 0.3 mm 2 mps 755 mmHg 71%
    19:00 +16°C° 0.3 mm 1 mps 755 mmHg 78%
    20:00 +16°C° 0.2 mm 1 mps 755 mmHg 80%
    21:00 +15°C° 0.2 mm 1 mps 755 mmHg 82%
    22:00 +15°C° 0.2 mm 1 mps 755 mmHg 84%
    23:00 +15°C° 0.1 mm 1 mps 755 mmHg 85%
    Show more